Location: Spruce Knob
(38.6995°N, 79.5330°W)
Time: 19:55:50
(UTC-04:00)

A-11 Canister half - Pass Details

Date: 06 February 2022
Orbit: 1513 x 1686 km, 47.2° (Epoch: 26 May)

Event Time Altitude Azimuth Distance (km) Brightness Sun altitude
Rises 17:43:46 0° 292° (WNW) 4,772 12.4 -0.5°
Reaches altitude 10° 17:47:00 10° 296° (WNW) 3,763 11.8 -1.1°
Maximum altitude 17:56:19 57° 14° (NNE) 1,757 9.2 -2.8°
Drops below altitude 10° 18:05:23 10° 93° (E) 3,671 10.4 -4.5°
Enters shadow 18:07:49 - 96° (E) 4,434 10.8 -4.9°
Sets 18:08:30 0° 97° (E) 4,648 - -5.1°
